EW9904 Weather Reports


Display with metric or nautical units.
time (UTC)temp
F
wind
direction
speed
MPH
gust
MPH
rain 1hr
in
rain 24hr
in
rain mn
in
humidity
%
barometer
mb
20260506044004 66 221 4.0 11.0 0.00 0.00 0.00 75 1012.6
20260506043504 66 235 4.0 12.0 0.00 0.00 0.00 75 1012.5
20260506043005 66 201 4.0 12.0 0.00 0.00 0.00 75 1012.5
20260506042503 66 220 4.0 10.0 0.00 0.00 0.00 75 1012.5
20260506042004 66 229 4.0 10.0 0.00 0.00 0.00 74 1012.5
20260506041503 66 200 4.0 8.0 0.00 0.00 0.00 74 1012.6
20260506041003 66 277 4.0 10.0 0.00 0.00 0.00 74 1012.5
20260506040504 66 207 4.0 10.0 0.00 0.00 0.00 74 1012.4
20260506040016 66 198 4.0 9.0 0.00 0.00 0.00 74 1012.5
20260506035505 66 200 4.0 11.0 0.00 0.00 0.00 73 1012.5
20260506034506 66 223 3.0 12.0 0.00 0.00 0.00 73 1012.5
20260506034007 66 264 4.0 8.0 0.00 0.00 0.00 73 1012.5
20260506033506 67 217 4.0 12.0 0.00 0.00 0.00 73 1012.5
20260506033007 67 166 4.0 12.0 0.00 0.00 0.00 73 1012.5
20260506032505 67 184 4.0 14.0 0.00 0.00 0.00 72 1012.5
20260506032007 67 215 4.0 14.0 0.00 0.00 0.00 72 1012.6
20260506031506 67 194 4.0 11.0 0.00 0.00 0.00 72 1012.4
20260506031006 67 223 4.0 12.0 0.00 0.00 0.00 72 1012.5
20260506030506 67 257 4.0 14.0 0.00 0.00 0.00 72 1012.5
20260506030006 67 210 4.0 14.0 0.00 0.00 0.00 72 1012.6
20260506025006 67 263 4.0 13.0 0.00 0.00 0.00 72 1012.5
20260506024504 67 217 3.0 8.0 0.00 0.00 0.00 72 1012.5
20260506024005 67 225 4.0 10.0 0.00 0.00 0.00 72 1012.5
20260506023504 67 219 4.0 12.0 0.00 0.00 0.00 72 1012.6
20260506023005 67 14 4.0 12.0 0.00 0.00 0.00 71 1012.6
20260506022505 67 207 4.0 10.0 0.00 0.00 0.00 71 1012.6
20260506022005 67 187 4.0 10.0 0.00 0.00 0.00 71 1012.5
20260506021505 68 167 4.0 12.0 0.00 0.00 0.00 71 1012.5
20260506021004 68 280 5.0 16.0 0.00 0.00 0.00 70 1012.5
20260506020504 68 215 4.0 16.0 0.00 0.00 0.00 70 1012.5
20260506020006 68 246 4.0 11.0 0.00 0.00 0.00 70 1012.5
20260506015504 68 276 4.0 14.0 0.00 0.00 0.00 70 1012.6
20260506015005 68 244 4.0 14.0 0.00 0.00 0.00 70 1012.4
20260506014504 68 282 4.0 14.0 0.00 0.00 0.00 70 1012.5
20260506013504 68 202 6.0 13.0 0.00 0.00 0.00 69 1012.3
20260506013006 69 267 6.0 13.0 0.00 0.00 0.00 69 1012.3
20260506012005 69 239 5.0 14.0 0.00 0.00 0.00 69 1012.1
20260506011504 69 207 5.0 15.0 0.00 0.00 0.00 68 1012.1
20260506005504 69 239 5.0 16.0 0.00 0.00 0.00 68 1011.9
20260506004504 69 235 5.0 15.0 0.00 0.00 0.00 68 1011.8
20260506004005 69 298 5.0 15.0 0.00 0.00 0.00 68 1011.7
20260506003503 70 277 5.0 12.0 0.00 0.00 0.00 67 1011.7
20260506003006 70 233 6.0 15.0 0.00 0.00 0.00 67 1011.6
20260506002504 70 194 5.0 15.0 0.00 0.00 0.00 67 1011.5
20260506001504 70 195 4.0 13.0 0.00 0.00 0.00 66 1011.5
20260506001004 70 208 5.0 13.0 0.00 0.00 0.00 66 1011.5
20260506000008 70 314 5.0 16.0 0.00 0.00 0.00 65 1011.5
20260505235505 70 148 5.0 10.0 0.00 0.00 0.00 64 1011.6
20260505235006 71 222 5.0 10.0 0.00 0.00 0.00 63 1011.5
20260505234504 71 189 6.0 14.0 0.00 0.00 0.00 63 1011.4
20260505233504 71 235 5.0 11.0 0.00 0.00 0.00 62 1011.4
20260505232504 72 210 5.0 14.0 0.00 0.00 0.00 60 1011.4
20260505232005 72 126 5.0 11.0 0.00 0.00 0.00 59 1011.5
20260505231504 73 216 5.0 11.0 0.00 0.00 0.00 58 1011.5
20260505231006 73 239 6.0 20.0 0.00 0.00 0.00 57 1011.4
20260505230504 74 233 5.0 20.0 0.00 0.00 0.00 56 1011.4
20260505225504 74 267 5.0 11.0 0.00 0.00 0.00 56 1011.3
20260505225005 74 184 5.0 12.0 0.00 0.00 0.00 55 1011.3
20260505224505 74 216 6.0 15.0 0.00 0.00 0.00 55 1011.3
20260505224005 75 249 5.0 16.0 0.00 0.00 0.00 55 1011.3
20260505223503 75 161 4.0 16.0 0.00 0.00 0.00 54 1011.3
20260505223004 76 223 5.0 22.0 0.00 0.00 0.00 54 1011.3
20260505222505 76 194 5.0 22.0 0.00 0.00 0.00 52 1011.1
20260505222005 76 223 6.0 17.0 0.00 0.00 0.00 53 1011.2
20260505221505 77 300 7.0 17.0 0.00 0.00 0.00 51 1011.1
20260505220006 77 223 6.0 18.0 0.00 0.00 0.00 52 1011.0
20260505215004 78 186 5.0 14.0 0.00 0.00 0.00 53 1010.8
20260505214503 78 279 5.0 12.0 0.00 0.00 0.00 51 1010.9
20260505214005 78 223 6.0 21.0 0.00 0.00 0.00 51 1010.9
20260505213504 79 202 7.0 21.0 0.00 0.00 0.00 49 1010.9
20260505212503 80 186 6.0 16.0 0.00 0.00 0.00 48 1010.7
20260505212005 80 214 6.0 16.0 0.00 0.00 0.00 49 1010.7
20260505211505 80 289 5.0 15.0 0.00 0.00 0.00 47 1010.6
20260505211004 82 240 4.0 11.0 0.00 0.00 0.00 43 1010.7
20260505210503 82 205 5.0 14.0 0.00 0.00 0.00 40 1010.8
20260505210006 82 250 7.0 15.0 0.00 0.00 0.00 36 1010.7
20260505205503 82 286 7.0 24.0 0.00 0.00 0.00 37 1010.6
20260505205005 83 222 6.0 24.0 0.00 0.00 0.00 37 1010.8
20260505204005 83 222 6.0 17.0 0.00 0.00 0.00 36 1010.9
20260505203503 83 210 5.0 15.0 0.00 0.00 0.00 37 1010.7
20260505203004 83 262 5.0 15.0 0.00 0.00 0.00 38 1010.7
20260505202503 83 259 5.0 14.0 0.00 0.00 0.00 40 1010.7
20260505202004 83 286 5.0 14.0 0.00 0.00 0.00 38 1010.9
20260505201504 83 293 6.0 16.0 0.00 0.00 0.00 38 1011.0
20260505201004 83 250 7.0 18.0 0.00 0.00 0.00 39 1011.0
20260505200503 83 288 6.0 18.0 0.00 0.00 0.00 38 1011.1
20260505200005 84 289 6.0 17.0 0.00 0.00 0.00 38 1011.1
20260505195010 83 265 5.0 17.0 0.00 0.00 0.00 38 1011.2
20260505194504 84 263 6.0 15.0 0.00 0.00 0.00 37 1011.4
20260505193503 85 234 4.0 19.0 0.00 0.00 0.00 36 1011.2
20260505193005 85 242 3.0 10.0 0.00 0.00 0.00 38 1011.3
20260505192503 85 167 4.0 12.0 0.00 0.00 0.00 37 1011.3
20260505192004 85 171 5.0 12.0 0.00 0.00 0.00 36 1011.3
20260505191504 85 227 5.0 14.0 0.00 0.00 0.00 37 1011.3
20260505191005 85 189 6.0 14.0 0.00 0.00 0.00 35 1011.3
20260505190503 85 11 6.0 14.0 0.00 0.00 0.00 35 1011.4
20260505190005 84 297 6.0 17.0 0.00 0.00 0.00 36 1011.4
20260505185503 84 355 6.0 17.0 0.00 0.00 0.00 36 1011.6
20260505185005 85 327 4.0 14.0 0.00 0.00 0.00 40 1011.5
20260505184504 84 187 5.0 12.0 0.00 0.00 0.00 41 1011.7
20260505184005 84 145 5.0 20.0 0.00 0.00 0.00 42 1011.6
20260505183005 84 236 5.0 13.0 0.00 0.00 0.00 39 1011.6
20260505182504 84 217 5.0 13.0 0.00 0.00 0.00 39 1011.7
20260505182005 83 255 5.0 13.0 0.00 0.00 0.00 40 1011.8
20260505181504 84 242 6.0 17.0 0.00 0.00 0.00 42 1011.8
20260505180504 84 238 4.0 13.0 0.00 0.00 0.00 43 1011.9
20260505180006 84 265 4.0 14.0 0.00 0.00 0.00 45 1012.0
20260505175504 84 261 5.0 12.0 0.00 0.00 0.00 42 1012.1
20260505175005 84 313 4.0 14.0 0.00 0.00 0.00 47 1012.2
20260505174503 84 223 4.0 14.0 0.00 0.00 0.00 45 1012.1
20260505174004 83 285 5.0 13.0 0.00 0.00 0.00 43 1012.2
20260505173006 84 306 4.0 13.0 0.00 0.00 0.00 43 1012.2
20260505172503 83 244 4.0 11.0 0.00 0.00 0.00 43 1012.3
20260505171505 83 205 4.0 10.0 0.00 0.00 0.00 43 1012.2
20260505171003 82 198 4.0 10.0 0.00 0.00 0.00 48 1012.3
20260505170503 82 266 5.0 12.0 0.00 0.00 0.00 46 1012.4
20260505170005 82 202 4.0 12.0 0.00 0.00 0.00 44 1012.4
20260505165502 82 253 4.0 10.0 0.00 0.00 0.00 46 1012.4
20260505165004 83 212 4.0 10.0 0.00 0.00 0.00 44 1012.4
20260505164502 82 253 5.0 11.0 0.00 0.00 0.00 46 1012.4
20260505164002 81 234 5.0 15.0 0.00 0.00 0.00 46 1012.4
20260505162502 81 128 4.0 10.0 0.00 0.00 0.00 48 1012.5
20260505162004 81 317 4.0 13.0 0.00 0.00 0.00 48 1012.4
20260505161503 80 311 4.0 13.0 0.00 0.00 0.00 46 1012.5
20260505161005 80 213 4.0 12.0 0.00 0.00 0.00 50 1012.7
20260505160503 80 261 4.0 12.0 0.00 0.00 0.00 51 1012.7
20260505153004 78 210 4.0 14.0 0.00 0.00 0.00 50 1012.8
20260505152504 78 271 4.0 14.0 0.00 0.00 0.00 53 1012.9
20260505152005 78 272 4.0 12.0 0.00 0.00 0.00 50 1012.8
20260505151503 78 265 4.0 11.0 0.00 0.00 0.00 54 1012.8
20260505151004 77 283 4.0 13.0 0.00 0.00 0.00 51 1012.8
20260505150502 77 219 4.0 13.0 0.00 0.00 0.00 51 1012.8
20260505140503 75 294 4.0 11.0 0.00 0.00 0.00 57 1013.0
20260505125006 70 259 3.0 10.0 0.00 0.00 0.00 64 1013.1
20260505124503 70 205 3.0 11.0 0.00 0.00 0.00 66 1013.0
20260505124003 69 281 3.0 11.0 0.00 0.00 0.00 65 1013.0
20260505123503 69 251 3.0 8.0 0.00 0.00 0.00 66 1013.1
20260505122503 68 252 3.0 9.0 0.00 0.00 0.00 66 1013.0
20260505122004 68 227 3.0 8.0 0.00 0.00 0.00 67 1013.0
20260505121503 67 238 3.0 8.0 0.00 0.00 0.00 67 1013.0
20260505121004 66 325 3.0 10.0 0.00 0.00 0.00 68 1013.0
20260505115503 65 306 3.0 8.0 0.00 0.00 0.00 68 1012.9
20260505115002 65 205 3.0 9.0 0.00 0.00 0.00 68 1012.9
20260505114003 64 169 2.0 5.0 0.00 0.00 0.00 69 1012.8
20260505113502 64 225 3.0 7.0 0.00 0.00 0.00 70 1012.8
20260505112503 63 245 3.0 7.0 0.00 0.00 0.00 70 1012.9
20260505112003 63 262 3.0 10.0 0.00 0.00 0.00 70 1012.9
20260505111501 63 257 3.0 7.0 0.00 0.00 0.00 70 1012.8
20260505111003 63 217 3.0 8.0 0.00 0.00 0.00 71 1012.8
20260505110501 63 178 3.0 8.0 0.00 0.00 0.00 72 1012.8
20260505102002 62 238 2.0 5.0 0.00 0.00 0.00 72 1012.4
20260505101003 62 233 3.0 6.0 0.00 0.00 0.00 72 1012.4
20260505095501 62 219 3.0 8.0 0.00 0.00 0.00 72 1012.3
20260505095004 62 213 3.0 9.0 0.00 0.00 0.00 71 1012.1
20260505094500 62 243 3.0 9.0 0.00 0.00 0.00 71 1012.2
20260505094004 62 263 3.0 12.0 0.00 0.00 0.00 71 1012.2
20260505093502 62 277 3.0 12.0 0.00 0.00 0.00 71 1012.1
20260505093002 62 263 3.0 9.0 0.00 0.00 0.00 71 1012.1
20260505092501 62 281 3.0 7.0 0.00 0.00 0.00 72 1012.1
20260505092002 62 298 2.0 7.0 0.00 0.00 0.00 71 1012.1
20260505091500 62 243 3.0 7.0 0.00 0.00 0.00 71 1012.0
20260505090502 62 281 3.0 8.0 0.00 0.00 0.00 72 1011.9
20260505090002 62 271 3.0 8.0 0.00 0.00 0.00 71 1011.9
20260505085500 62 225 3.0 8.0 0.00 0.00 0.00 72 1011.9
20260505085004 63 281 2.0 8.0 0.00 0.00 0.00 72 1011.8
20260505084001 62 215 3.0 9.0 0.00 0.00 0.00 72 1011.8
20260505083500 62 251 3.0 9.0 0.00 0.00 0.00 73 1011.8
20260505082459 62 257 2.0 7.0 0.00 0.00 0.00 72 1011.9
20260505082001 62 211 2.0 8.0 0.00 0.00 0.00 73 1011.9
20260505081500 62 285 2.0 8.0 0.00 0.00 0.00 73 1012.0
20260505081002 62 292 2.0 6.0 0.00 0.00 0.00 73 1012.1
20260505080500 62 11 2.0 6.0 0.00 0.00 0.00 73 1012.0
20260505080001 61 221 2.0 5.0 0.00 0.00 0.00 74 1012.0
20260505075459 61 223 2.0 7.0 0.00 0.00 0.00 74 1012.0
20260505075003 61 187 2.0 7.0 0.00 0.00 0.00 75 1012.0
20260505074500 61 275 2.0 5.0 0.00 0.00 0.00 75 1012.0
20260505074001 61 257 2.0 7.0 0.00 0.00 0.00 75 1012.0
20260505073500 61 250 2.0 7.0 0.00 0.00 0.00 75 1012.0
20260505073001 61 288 2.0 5.0 0.00 0.00 0.00 76 1012.0
20260505072500 61 289 2.0 5.0 0.00 0.00 0.00 76 1011.9
20260505071501 61 240 2.0 8.0 0.00 0.00 0.00 76 1011.8
20260505071001 61 310 2.0 8.0 0.00 0.00 0.00 76 1011.9
20260505065500 61 236 2.0 10.0 0.00 0.00 0.00 76 1011.7
20260505065001 61 277 2.0 11.0 0.00 0.00 0.00 76 1011.8
20260505064500 61 184 2.0 8.0 0.00 0.00 0.00 76 1011.8
20260505064000 61 270 2.0 8.0 0.00 0.00 0.00 76 1011.7
20260505063002 61 277 2.0 7.0 0.00 0.00 0.00 77 1011.7
20260505062500 61 238 2.0 5.0 0.00 0.00 0.00 77 1011.7
20260505062002 61 237 2.0 5.0 0.00 0.00 0.00 77 1011.7
20260505061002 61 306 2.0 8.0 0.00 0.00 0.00 77 1011.8
20260505060501 61 263 1.0 7.0 0.00 0.00 0.00 77 1011.7
20260505055002 62 85 2.0 7.0 0.00 0.00 0.00 76 1011.8
20260505054500 62 180 2.0 7.0 0.00 0.00 0.00 76 1011.8
20260505054002 62 262 2.0 8.0 0.00 0.00 0.00 75 1011.8
20260505053459 62 229 3.0 9.0 0.00 0.00 0.00 75 1011.7
20260505053009 62 215 4.0 9.0 0.00 0.00 0.00 75 1011.8
20260505052500 62 195 3.0 10.0 0.00 0.00 0.00 75 1011.8
20260505052001 62 213 3.0 9.0 0.00 0.00 0.00 75 1011.8
20260505051459 62 226 3.0 9.0 0.00 0.00 0.00 75 1011.8
20260505051001 62 271 3.0 10.0 0.00 0.00 0.00 75 1011.8
20260505050501 62 192 3.0 10.0 0.00 0.00 0.00 75 1011.9